Location: Adrasan
(36.3319°N, 30.4314°E)
Time: 09:39:57
(UTC+00:00)

Meteor 1-10 Rocket - Pass Details

Date: 22 May 2024
Orbit: 834 x 910 km, 81.3° (Epoch: 16 June)

Event Time Altitude Azimuth Distance (km) Brightness Sun altitude
Exits shadow 18:19:23 18° 113° (ESE) 2,018 5.6 -13.6°
Maximum altitude 18:21:14 21° 88° (E) 1,864 5.6 -13.9°
Drops below altitude 10° 18:25:20 10° 41° (NE) 2,506 6.7 -14.6°
Sets 18:28:18 0° 26° (NNE) 3,433 7.6 -15.0°
